Rbgn^[z[y[W
メイン
   新天体発見情報
     Comet C/2019 K7 (Smith)
投稿するにはまず登録を

スレッド表示 | 新しいものから 前のトピック | 次のトピック | 下へ
投稿者 スレッド
佐藤裕久
投稿日時: 2019-7-16 1:15
モデレータ
登録日: 2005-6-12
居住地: 日本
投稿: 2005
オンライン
Comet C/2019 K7 (Smith)

A. Heinzeの通報によると、Ken W. Smith (Queen's大学, Belfast)は、Haleakalaにある小惑星地球
衝突最終警報システム Asteroid Terrestrial-impact Last Alert System (ATLAS)調査プログラムの
コースに0.5-m 反射望遠鏡で得たCCD画像から彗星を発見した。
この天体は、4つのイメージのすべてが同様の明るさの恒星と比較して拡張していると注記された。
南南東 (p.a. 約160°)に向かって少なくとも20"のかすかな尾がある。
小惑星センターのPCCP webpageに公表後、T. ChenとP. Sun (0.3-m 反射望遠鏡, Ngari, チベット,
中国; 6月1.9日UT、BISTプログラム (測定者:D. W. E. Green)のコースに、フィルターなしの40秒露出
19枚のスタックで、良く集光した約6"のコマとp.a. 約141-169°に明らかに約20"のかすかな尾が見え
る。24"の円形範囲で測定した全光度は17.4等であった)や佐藤英貴氏(東京都文京区, iTelescope 天文
台, 0.51-m f/6.8 アストログラフ, Siding Spring, 遠隔操作: 6月4.65-4.66 日UT、60秒露出6枚の
スタックで、強く集光した12" のコマが見え、p.a. 340 °に向かって1'.5 の尾がある。6".5の円形範
囲で測定した光度は16.9等であった)らCCD位置観測者によって彗星状と観測された。

発見位置は次のとおり、

     2019 UT             R.A. (2000) Decl.       Mag.
     May  30.56534   22 23 48.17   -34 43 04.0   17.7
          30.56815   22 23 48.13   -34 43 04.7   17.2
          30.57534   22 23 47.96   -34 43 04.3   17.8
          30.58628   22 23 47.72   -34 43 04.8   17.2

暫定準放物線軌道要素と位置推算表は次のとおり、

Orbital elements:
    C/2019 K7 (Smith)
Epoch 2020 May 31.0 TT = JDT 2459000.5
T 2020 June 17.20481 TT                                 MPCLINUX
q   4.4653924            (2000.0)            P               Q
z  -0.0027161      Peri.   27.50830     +0.45905391     -0.44843291
 +/-0.0016262      Node   307.89933     -0.88195288     -0.12614975
e   1.0121284      Incl.  103.61194     +0.10690473     +0.88486957
From 142 observations 2019 May 30-July 1, mean residual 0".4.

    C/2019 K7 (Smith)
Epoch 2019 Apr. 27.0 TT = JDT 2458600.5
T 2020 June 17.09587 TT                                 MPCLINUX
q   4.4660349            (2000.0)            P               Q
z  -0.0027291      Peri.   27.48191     +0.45946141     -0.44764936
 +/-0.0016262      Node   307.89311     -0.88177209     -0.12618770
e   1.0121881      Incl.  103.56593     +0.10664520     +0.88526082
From 142 observations 2019 May 30-July 1, mean residual 0".4.

Ephemeris:
Date    TT    R. A. (2000) Decl.     Delta      r    Elong.  Phase   m1
2019 06 01    22 23 15.9 -34 43 15   5.0820  5.4217   104.3    10.4  17.1
...
2019 06 16    22 15 22.6 -34 50 44   4.7906  5.3562   118.9     9.6  16.9
...
2019 06 24    22 09 23.4 -34 57 09   4.6483  5.3219   127.0     8.8  16.8
...
2019 06 30    22 04 03.8 -35 02 00   4.5499  5.2965   133.1     8.1  16.7
2019 07 01    22 03 06.4 -35 02 46   4.5343  5.2923   134.1     7.9  16.7
2019 07 02    22 02 07.8 -35 03 29   4.5189  5.2881   135.1     7.8  16.7
...
2019 07 08    21 55 52.0 -35 07 07   4.4322  5.2630   141.2     7.0  16.6
...
2019 07 16    21 46 31.0 -35 08 54   4.3326  5.2300   149.0     5.7  16.6
...
2019 07 31    21 26 33.3 -34 56 42   4.2019  5.1695   160.4     3.8  16.5

     This object was reported as cometary by A. Heinze (T05) in discovery 
images obtained on 2019 May 30 UT:  "This object is extended relative to 
nearby field stars of similar brightness on all four images. We find the 
FWHM to be larger with at least 7 sigma significance relative to field 
stars, with an average FWHM excess amounting to 5.5 arcsec in quadrature. 
A faint tail at least 20 arcseconds long extends toward the south-southeast, 
at a position angle of about 160 degrees." Other reports of cometary 
features are summarized below:

OC   Date     Reporter           Coma    Tail
I47  June  1  M. Masek                   14" in P.A. 160      (20 x 60s)
N55  June  1  D. W. E. Green       6"   ~20" in P.A. 141-169  (19 x 40s)
N55  June  2  D. W. E. Green       6"   ~15" in P.A. ~176     (19 x 40s)
K91  June  2  J. D. Armstrong            20"  
I47  June  4  M. Masek            12"    25" in P.A. 150      (17 x 60s)
Q62  June  4  R. Ligustri               ~70" in P.A. 150      (4 x 300s) 
Q62  June  4  H. Sato             12"     2" in P.A. 340      (6 x 60s)
Q62  June  5  A. Valvasori       ~13"   ~37" in P.A. 158 
N55  June  5  D. W. E. Green     6"x9"                        (19 x 40s)
N55  June  6  D. W. E. Green     ~8"    ~12" in P.A. ~156     (19 x 40s)
N55  June  7  D. W. E. Green     ~7"    ~20" in P.A. ~153     (20 x 40s)
N55  June  8  D. W. E. Green             ~3' in P.A. ~144     (3 x 40s)
N55  June  9  D. W. E. Green     5"-7"  ~40" in P.A. ~160     (19 x 40s)
N55  June 10  D. W. E. Green     4"-5"  ~40" in P.A. ~155     (30 x 40s)
N55  June 12  D. W. E. Green     5"-7"  in P.A. 150 and 330   (15 x 40s)
N55  June 14  D. W. E. Green     6"-7"  ~30" in P.A. ~154     (19 x 40s)
Q62  June 15  E. Bryssinck        11"    45" in P.A. 147 
E94  June 17  J. Drummond               ~60" in P.A. ~158     (13 x 60s)
X74  June 25  L. S. Amaral       ~16"                         (3 x 60s)
Q38  June 27  M. Mattiazzo                2' in P.A. 144
850  July  1  D. T. Durig         11"    27" in P.A. 147      (378 x 

(CBET 4645、MPEC 2019-N12)

スレッド表示 | 新しいものから 前のトピック | 次のトピック | トップ

投稿するにはまず登録を
 
© 1999 Tsutomu Seki.